Weather History for KBOK - February, 2014

Change the Weather History Date:

Friday, February 28, 2014

  Actual Average Record
Temperature  
Mean Temperature 55 °F -  
Max Temperature 63 °F 56 °F 68 °F (1938)
Min Temperature 47 °F 42 °F 30 °F (1939)
Degree Days  
Heating Degree Days 10    
Growing Degree Days 5 (Base 50)    
Moisture  
Dew Point 45 °F    
Average Humidity 74    
Maximum Humidity 100    
Minimum Humidity 50    
Precipitation  
Precipitation 0.04 in - - ()
Sea Level Pressure  
Sea Level Pressure 29.42 in    
Wind  
Wind Speed 7 mph (ENE)    
Max Wind Speed 15 mph    
Max Gust Speed 24 mph    
Visibility 9 miles    
Events Rain    
Averages and records for this station are not official NWS values.
T = Trace of Precipitation, MM = Missing Value Source: NWS Daily Summary

Daily Weather History Graph

Daily Weather History Graph

Search for Another Location

Airport or City:

Trip Planner

Search our weather history database for the weather conditions in past years. The results will help you decide how hot, cold, wet, or windy it might be!

Date:

Astronomy

Feb. 28, 2014 Rise Set
Actual Time 6:53 AM PST 6:06 PM PST
Civil Twilight 6:25 AM PST 6:34 PM PST
Nautical Twilight 5:53 AM PST 7:06 PM PST
Astronomical Twilight 5:20 AM PST 7:39 PM PST
Moon 6:12 AM PST (2/28) 5:50 PM PST (2/28)
Length of Visible Light 12h 08m
Length of Day
11h 12m
Waning Crescent, 0% of the Moon is Illuminated
Feb 28
Waning Crescent
Mar 1
New
Mar 8
First Quarter
Mar 16
Full
Mar 23
Last Quarter

Hourly Weather History & Observations

Time (PST) Temp. Dew Point Humidity Pressure Visibility Wind Dir Wind Speed Gust Speed Precip Events Conditions
12:56 AM 52.9 °F 43.9 °F 71% 29.55 in 10.0 mi NE 9.2 mph - N/A   Clear
1:56 AM 54.0 °F 43.0 °F 66% 29.51 in 10.0 mi NE 9.2 mph 18.4 mph N/A   Clear
2:56 AM 54.9 °F 43.0 °F 64% 29.48 in 10.0 mi Variable 6.9 mph - N/A   Clear
3:56 AM 55.9 °F 41.0 °F 57% 29.44 in 10.0 mi Variable 5.8 mph - N/A   Overcast
4:56 AM 55.9 °F 41.0 °F 57% 29.42 in 10.0 mi NE 10.4 mph - N/A   Mostly Cloudy
5:56 AM 52.9 °F 43.9 °F 71% 29.42 in 10.0 mi East 9.2 mph - N/A   Clear
6:56 AM 56.8 °F 38.8 °F 51% 29.39 in 10.0 mi ENE 12.7 mph 19.6 mph N/A   Clear
7:32 AM 53.6 °F 44.6 °F 72% 29.39 in 2.5 mi ENE 11.5 mph 16.1 mph 0.02 in Rain Rain
7:41 AM 51.8 °F 44.6 °F 76% 29.38 in 3.0 mi ENE 10.4 mph - 0.03 in Rain Rain
7:56 AM 50.9 °F 45.0 °F 80% 29.36 in 8.0 mi NE 15.0 mph 24.2 mph 0.03 in Rain Light Rain
8:56 AM 54.0 °F 45.0 °F 72% 29.35 in 10.0 mi NE 10.4 mph 18.4 mph 0.00 in   Clear
9:56 AM 55.9 °F 43.0 °F 62% 29.35 in 10.0 mi ENE 11.5 mph 17.3 mph 0.00 in   Overcast
10:56 AM 55.9 °F 43.9 °F 64% 29.37 in 10.0 mi ENE 8.1 mph - N/A   Mostly Cloudy
11:56 AM 57.9 °F 43.0 °F 58% 29.38 in 10.0 mi Variable 6.9 mph - 0.00 in   Partly Cloudy
12:56 PM 57.9 °F 45.0 °F 62% 29.36 in 10.0 mi ENE 6.9 mph - 0.00 in Rain Light Rain
1:56 PM 61.9 °F 45.0 °F 54% 29.34 in 10.0 mi Variable 4.6 mph - 0.00 in   Partly Cloudy
2:56 PM 63.0 °F 43.9 °F 50% 29.37 in 10.0 mi SE 3.5 mph - N/A   Scattered Clouds
3:56 PM 55.9 °F 46.9 °F 72% 29.38 in 10.0 mi Variable 3.5 mph - N/A   Clear
4:56 PM 54.0 °F 48.9 °F 83% 29.40 in 10.0 mi Variable 4.6 mph - N/A   Mostly Cloudy
5:56 PM 52.9 °F 48.9 °F 86% 29.40 in 10.0 mi Calm Calm - N/A   Mostly Cloudy
6:56 PM 50.9 °F 47.8 °F 89% 29.42 in 10.0 mi Calm Calm - N/A   Mostly Cloudy
7:56 PM 50.0 °F 47.8 °F 92% 29.44 in 9.0 mi Calm Calm - 0.00 in Rain Light Rain
8:56 PM 48.9 °F 47.8 °F 96% 29.45 in 10.0 mi Calm Calm - 0.01 in   Scattered Clouds
9:56 PM 47.8 °F 46.9 °F 97% 29.48 in 10.0 mi Calm Calm - N/A   Overcast
10:56 PM 48.9 °F 47.8 °F 96% 29.50 in 10.0 mi Calm Calm - N/A   Overcast
11:49 PM 50.0 °F 48.2 °F 94% 29.51 in 5.0 mi Calm Calm - 0.00 in Rain Light Rain
11:56 PM 48.9 °F 48.9 °F 100% 29.52 in 8.0 mi Calm Calm - 0.00 in Rain Light Rain